[[{"header":{"parameterUnit":"m.s-1","parameterCategory":1,"la1":30.2991,"la2":30.254,"lo1":-89.0895,"lo2":-89.0444,"dy":0.0017,"dx":0.0017,"nx":28,"ny":28,"refTime":"2025-05-15T03:00:00:Z","depth":0,"parameterNumber":2,"parameterNumberName":"U-component_of_WINDS"},"data":[0,0,0,0,0,0,0,0,0,0,0,0,0,0,0,0,0,0,0,0,0,0,0,0,0,0,0,0,0,0,0,0,0,0,0,0,0,0,0,0,0,0,0,0,0,0,0,0,0,0,0,0,0,0,0,0,0,0,1.3774,1.3773,0,1.3691,1.369,1.3689,1.3587,1.3586,1.3584,1.3582,1.3499,1.3499,1.3498,0,0,0,0,0,0,0,0,0,0,0,0,0,1.3845,1.3844,1.3774,1.3773,1.3772,1.3691,1.369,1.3689,1.3587,1.3585,1.3584,1.3582,1.35,1.3499,1.3498,0,0,0,0,0,0,0,0,0,0,0,0,0,1.3794,1.3844,1.3774,1.3711,1.3705,1.3691,1.369,1.3688,1.3588,1.3585,1.3583,1.3581,1.35,1.3499,1.3498,1.354,0,0,1.3495,1.3494,0,0,0,0,0,0,0,0,1.3797,1.3791,1.3722,1.3716,1.3708,1.3647,1.3684,1.3639,1.3588,1.3632,1.3582,1.358,1.3551,1.3545,1.3535,1.3536,1.3532,1.3495,1.3494,1.3493,1.3493,0,0,0,0,0,0,0,1.38,1.3794,1.3741,1.3721,1.3713,1.3688,1.3678,1.3675,1.3606,1.3628,1.3621,1.3612,1.3547,1.3536,1.3532,1.3531,1.3495,1.3494,1.3493,1.3493,1.356,1.3562,0,0,0,0,0,0,1.3813,1.3798,1.3744,1.3738,1.3747,1.3688,1.3677,1.3669,1.3606,1.3594,1.3614,1.3608,1.3539,1.3534,1.3529,1.3572,1.3493,1.3492,1.3492,1.3557,1.356,1.3563,0,0,0,0,0,0,1.3815,1.3809,1.3747,1.3766,1.3756,1.369,1.3681,1.3669,1.3658,1.3595,1.3582,1.3617,1.3537,1.353,1.3537,1.3568,1.3492,1.3491,1.3555,1.3558,1.3562,1.366,0,0,0,0,0,0,1.3817,1.381,1.3825,1.3767,1.3755,1.3757,1.3683,1.3669,1.3656,1.3647,1.3594,1.3583,1.3535,1.3539,1.3536,1.3565,1.349,1.3551,1.3556,1.356,1.3654,1.3666,1.3677,0,0,0,0,0,1.382,1.3857,1.3827,1.3821,1.3773,1.3759,1.3752,1.3695,1.3659,1.3674,1.3633,1.3584,1.3565,1.3541,1.3536,1.3566,1.3549,1.3555,1.356,1.3648,1.3664,1.3677,0,0,0,0,0,0,1.3922,1.3848,1.3814,1.3833,1.3803,1.3741,1.3758,1.3714,1.3694,1.3686,1.3617,1.3606,1.3621,1.3594,1.3568,1.3602,1.355,1.3555,1.3619,1.3633,1.3645,1.365,1.3489,0,0,0,0,0,1.3946,1.3941,1.3877,1.39,1.3886,1.3825,1.3817,1.3776,1.3742,1.3729,1.3688,1.3658,1.3644,1.3637,1.3622,1.3649,1.3636,1.3667,1.3679,1.3689,1.3694,1.3705,1.3718,1.3581,1.3581,1.3581,0,0,1.3997,1.3956,1.3957,1.3919,1.3891,1.3886,1.3815,1.3814,1.3809,1.3729,1.3732,1.3701,1.3663,1.368,1.3685,1.3658,1.3729,1.3696,1.3705,1.3704,1.3712,1.3725,1.3737,1.3585,1.3584,1.3583,0,0,1.4087,1.4056,1.407,1.4043,1.4001,1.396,1.3964,1.3909,1.3885,1.3887,1.3826,1.3821,1.38,1.3774,1.3758,1.3838,1.3792,1.3835,1.3897,1.3909,1.3919,1.3929,1.3956,1.3966,1.384,1.384,1.384,0,1.4155,1.4145,1.4084,1.4086,1.407,1.3997,1.4011,1.3988,1.3943,1.3934,1.3904,1.3875,1.3844,1.3853,1.3873,1.3863,1.3865,1.384,1.3923,1.3931,1.3939,1.3964,1.3975,1.3846,1.3845,1.3844,1.3844,0,1.4231,1.4225,1.4242,1.42,1.4187,1.4195,1.4135,1.4129,1.4089,1.4052,1.4054,1.4014,1.3988,1.3988,1.395,1.3991,1.3975,1.3935,1.3882,1.3959,1.3981,1.399,1.3853,1.3851,1.385,1.3849,0,0,1.4381,1.4304,1.4312,1.4291,1.4239,1.4233,1.4238,1.4212,1.4208,1.418,1.4182,1.4165,1.4127,1.411,1.4068,1.4078,1.4142,1.4036,1.4034,1.4056,1.4184,1.4214,1.4226,1.4112,1.4113,1.4115,1.4187,0,1.446,1.4463,1.4408,1.4426,1.442,1.4349,1.4353,1.4322,1.4287,1.4276,1.4237,1.4226,1.4178,1.4166,1.4174,1.4133,1.4167,1.4127,1.4112,1.4112,1.4123,1.4238,1.427,1.434,1.4196,1.4197,1.4198,0,1.4553,1.4528,1.4546,1.4492,1.4487,1.4492,1.4463,1.4454,1.4417,1.439,1.437,1.4322,1.4323,1.4273,1.4273,1.4247,1.4238,1.4217,1.4218,1.4214,1.4159,1.4235,1.4361,1.4371,1.4211,1.421,1.4209,0,1.4659,1.4631,1.4637,1.4622,1.456,1.4564,1.4539,1.4499,1.4487,1.4462,1.4453,1.4429,1.4416,1.4399,1.4346,1.4314,1.4351,1.4297,1.4329,1.433,1.4339,1.4339,1.4464,1.4335,1.4335,1.4335,1.4335,0,1.4752,1.4765,1.4684,1.4688,1.47,1.4637,1.4651,1.4619,1.4584,1.458,1.4519,1.4516,1.4447,1.4437,1.4395,1.44,1.4396,1.4374,1.4362,1.4378,1.4381,1.4371,1.4364,1.4338,1.4337,1.4337,1.4336,0,1.4872,1.4819,1.4821,1.4761,1.4747,1.4758,1.4707,1.4708,1.4669,1.4665,1.4661,1.46,1.4585,1.453,1.4502,1.4474,1.4492,1.4471,1.4504,1.4497,1.4531,1.4528,1.4652,1.4665,1.4531,1.4532,1.4533,0,1.4934,1.4942,1.4884,1.4876,1.4853,1.4843,1.4829,1.4767,1.4756,1.4714,1.472,1.47,1.468,1.466,1.4613,1.4591,1.4568,1.4613,1.4564,1.458,1.4567,1.4567,1.4567,1.4624,1.4625,1.4627,1.4628,0,1.505,1.5023,1.5006,1.498,1.4966,1.4942,1.4915,1.4913,1.4844,1.4835,1.4818,1.4803,1.4774,1.4754,1.4724,1.4698,1.4651,1.4644,1.465,1.4666,1.4684,1.4673,1.4532,1.4641,1.464,1.4639,1.4638,1.4637,1.5141,1.5145,1.5104,1.5087,1.506,1.5036,1.5034,1.4994,1.4979,1.495,1.4915,1.4902,1.4864,1.4819,1.4796,1.4786,1.476,1.4769,1.4771,1.4774,1.4781,1.4687,1.478,1.478,1.4779,1.4779,1.4779,0,1.5252,1.5222,1.5207,1.5171,1.5158,1.5115,1.5083,1.5075,1.5064,1.5032,1.5014,1.4995,1.4976,1.4927,1.4903,1.4904,1.4882,1.49,1.4898,1.4893,1.4806,1.4803,1.4918,1.4918,1.4918,1.4918,1.4918,1.4918,1.5308,1.5311,1.528,1.5269,1.5239,1.5225,1.5211,1.5188,1.5162,1.5143,1.5126,1.5095,1.5056,1.5029,1.5009,1.4996,1.4989,1.5014,1.4993,1.4913,1.4899,1.4886,1.4883,1.5013,1.5013,1.508,1.5081,1.5081]},{"header":{"parameterUnit":"m.s-1","parameterCategory":1,"la1":30.2991,"la2":30.254,"lo1":-89.0895,"lo2":-89.0444,"dy":0.0017,"dx":0.0017,"nx":28,"ny":28,"refTime":"2025-05-15T03:00:00:Z","depth":0,"parameterNumber":3,"parameterNumberName":"V-component_of_WINDS"},"data":[0,0,0,0,0,0,0,0,0,0,0,0,0,0,0,0,0,0,0,0,0,0,0,0,0,0,0,0,0,0,0,0,0,0,0,0,0,0,0,0,0,0,0,0,0,0,0,0,0,0,0,0,0,0,0,0,0,0,5.904,5.904,0,5.9097,5.9098,5.9098,5.9054,5.9052,5.905,5.9049,5.9104,5.9107,5.9111,0,0,0,0,0,0,0,0,0,0,0,0,0,5.8889,5.8892,5.904,5.904,5.9041,5.9097,5.9098,5.9099,5.9055,5.9052,5.905,5.9048,5.9103,5.9107,5.9111,0,0,0,0,0,0,0,0,0,0,0,0,0,5.8951,5.8893,5.9039,5.9026,5.9025,5.9097,5.9098,5.9099,5.9055,5.9052,5.9049,5.9047,5.9102,5.9107,5.9111,5.9198,0,0,5.9126,5.9128,0,0,0,0,0,0,0,0,5.8947,5.8956,5.9027,5.9027,5.9026,5.9066,5.9065,5.9132,5.9056,5.9044,5.9049,5.9045,5.9093,5.9099,5.9116,5.9201,5.9203,5.9127,5.913,5.9132,5.9133,0,0,0,0,0,0,0,5.8943,5.8954,5.9062,5.9028,5.9028,5.9016,5.9022,5.9077,5.9084,5.9044,5.9041,5.9049,5.9093,5.9111,5.9117,5.9204,5.9127,5.9131,5.9134,5.9136,5.9364,5.9367,0,0,0,0,0,0,5.8941,5.895,5.906,5.9064,5.8979,5.9021,5.9027,5.9056,5.9083,5.9084,5.9051,5.9047,5.9104,5.9111,5.9119,5.9222,5.9132,5.9136,5.9139,5.9361,5.9365,5.9368,0,0,0,0,0,0,5.8937,5.8951,5.9058,5.9006,5.9019,5.9027,5.9059,5.9058,5.9077,5.9088,5.9089,5.9069,5.9102,5.9112,5.9179,5.9224,5.9139,5.9143,5.9357,5.9362,5.9366,5.9431,0,0,0,0,0,0,5.8933,5.895,5.8984,5.9008,5.9022,5.9119,5.9062,5.9062,5.9086,5.908,5.9105,5.9107,5.9101,5.9172,5.9184,5.9229,5.9147,5.9353,5.9359,5.9365,5.9425,5.9437,5.9448,0,0,0,0,0,5.8928,5.8999,5.8986,5.8999,5.9065,5.9122,5.913,5.9123,5.909,5.9123,5.9131,5.9106,5.9217,5.9179,5.9192,5.9239,5.935,5.9358,5.9364,5.942,5.9435,5.9448,0,0,0,0,0,0,5.8979,5.9002,5.8987,5.9068,5.9094,5.9114,5.9156,5.9139,5.9173,5.9166,5.9155,5.9161,5.9232,5.9242,5.92,5.9325,5.9278,5.9288,5.9316,5.933,5.9342,5.9338,5.9151,0,0,0,0,0,5.9,5.9045,5.9062,5.9132,5.9145,5.9149,5.9173,5.9166,5.9191,5.9201,5.9213,5.9237,5.9278,5.9304,5.9342,5.9426,5.9431,5.9465,5.9476,5.9486,5.9494,5.954,5.9555,5.9391,5.9391,5.9391,0,0,5.9043,5.9061,5.909,5.9143,5.9161,5.9207,5.9158,5.9209,5.9243,5.9208,5.9273,5.9283,5.9309,5.9386,5.942,5.9396,5.9541,5.9495,5.9502,5.9506,5.9549,5.9564,5.9578,5.9396,5.9395,5.9394,0,0,5.9146,5.9164,5.9224,5.9244,5.9273,5.9275,5.929,5.9313,5.9319,5.9384,5.9359,5.9399,5.9468,5.9488,5.9508,5.9618,5.9597,5.9631,5.9691,5.9735,5.9748,5.976,5.9799,5.9813,5.9639,5.964,5.964,0,5.9195,5.9265,5.9257,5.931,5.9334,5.9306,5.9366,5.9385,5.9425,5.9442,5.9415,5.9503,5.9519,5.9599,5.9626,5.9643,5.9659,5.9628,5.9747,5.9758,5.9769,5.9807,5.9822,5.9644,5.9643,5.9643,5.9642,0,5.9325,5.9373,5.9418,5.9459,5.9487,5.9544,5.9544,5.9573,5.9563,5.9568,5.9634,5.9652,5.9694,5.9712,5.9702,5.9791,5.9776,5.9749,5.9701,5.9789,5.9824,5.9838,5.9649,5.9648,5.9647,5.9646,0,0,5.9461,5.9497,5.9513,5.9531,5.9562,5.9599,5.9654,5.9695,5.9721,5.9749,5.9794,5.9855,5.983,5.9852,5.9844,5.9883,5.9969,5.985,5.9851,5.9872,6.0069,6.009,6.0106,5.9955,5.9958,5.996,6.0067,0,5.9565,5.9662,5.9657,5.9747,5.9792,5.9766,5.9814,5.9837,5.9843,5.9881,5.9886,5.9929,5.9893,5.9906,5.9944,5.9951,6.0009,5.9943,5.9997,5.9999,5.9992,6.0125,6.0147,6.0247,6.008,6.0083,6.0084,0,5.9699,5.9734,5.9829,5.9853,5.9872,5.9915,5.9953,5.999,6.0015,6.0017,6.0042,6.0027,6.0082,6.0034,6.0109,6.0064,6.0086,6.0093,6.0097,6.0101,6.0047,6.0133,6.0278,6.0293,6.0106,6.0104,6.0103,0,5.9789,5.9859,5.9926,5.9942,5.9971,6.0003,6.0016,6.0039,6.0064,6.0097,6.0113,6.0151,6.0172,6.0201,6.0198,6.0163,6.0274,6.0225,6.0276,6.0277,6.0301,6.03,6.0452,6.0315,6.0315,6.0314,6.0314,0,5.9906,5.9966,5.9967,6.0008,6.0073,6.0066,6.0131,6.0141,6.0162,6.0203,6.0182,6.0222,6.0214,6.0254,6.0251,6.0314,6.0323,6.0325,6.0324,6.0327,6.0327,6.0341,6.0334,6.0318,6.0318,6.0317,6.0316,0,6.0018,6.0021,6.0092,6.0114,6.0121,6.0169,6.0188,6.0226,6.023,6.0283,6.0295,6.0301,6.0346,6.0345,6.0396,6.0394,6.0471,6.0462,6.0463,6.0461,6.0513,6.0508,6.068,6.0702,6.055,6.0552,6.0553,0,6.0093,6.0138,6.0166,6.0193,6.0209,6.0253,6.0279,6.0273,6.0301,6.0334,6.0368,6.0411,6.0446,6.0519,6.0527,6.0566,6.0557,6.0615,6.0563,6.0565,6.0559,6.0556,6.0561,6.0625,6.0627,6.0628,6.0629,0,6.0225,6.0224,6.0263,6.0303,6.0335,6.0366,6.0394,6.0417,6.0414,6.0446,6.0493,6.052,6.0572,6.0616,6.0653,6.0666,6.0647,6.0645,6.0659,6.0663,6.0663,6.0664,6.0491,6.0641,6.064,6.0639,6.0639,6.0638,6.032,6.036,6.0386,6.043,6.0451,6.0478,6.0515,6.0524,6.0563,6.0606,6.06,6.0652,6.0676,6.0725,6.0741,6.0781,6.0761,6.0781,6.0786,6.0792,6.0798,6.0656,6.0788,6.0788,6.0787,6.0787,6.0787,0,6.0452,6.0467,6.0508,6.0549,6.0583,6.0564,6.0594,6.0624,6.067,6.0695,6.073,6.0783,6.0825,6.0837,6.0878,6.0907,6.09,6.0918,6.0916,6.0919,6.0813,6.0797,6.0924,6.0924,6.0924,6.0924,6.0924,6.0924,6.0524,6.059,6.0592,6.0668,6.0682,6.0734,6.0753,6.0778,6.0797,6.0859,6.0894,6.0902,6.0921,6.0963,6.1001,6.1003,6.1019,6.1041,6.104,6.094,6.0927,6.0914,6.0899,6.1044,6.1044,6.1142,6.1143,6.1144]}]]